GW1920 Weather Reports


time (UTC)temp
C
wind
direction
speed
KPH
gust
KPH
rain 1hr
cm
rain 24hr
cm
rain mn
cm
humidity
%
barometer
mb
20260506092634 11 6 0.0 0.0 0.00 0.00 0.00 99 1014.0
20260506092131 11 6 0.0 0.0 0.00 0.00 0.00 99 1014.0
20260506091629 11 6 0.0 0.0 0.00 0.00 0.00 99 1014.0
20260506091126 11 6 0.0 0.0 0.00 0.00 0.00 99 1014.0
20260506090624 11 6 0.0 0.0 0.00 0.00 0.00 99 1014.0
20260506090120 11 6 0.0 0.0 0.00 0.00 0.00 99 1014.1
20260506085617 11 6 0.0 0.0 0.00 0.00 0.00 99 1013.9
20260506085114 11 6 0.0 0.0 0.00 0.00 0.00 99 1014.2
20260506084610 11 6 0.0 0.0 0.00 0.00 0.00 99 1014.0
20260506084107 11 6 0.0 0.0 0.00 0.00 0.00 99 1014.0
20260506083604 11 6 0.0 0.0 0.00 0.00 0.00 99 1013.9
20260506083102 11 6 0.0 0.0 0.00 0.00 0.00 99 1013.7
20260506082558 11 6 0.0 0.0 0.00 0.00 0.00 99 1014.0
20260506082054 11 6 0.0 0.0 0.00 0.00 0.00 99 1014.0
20260506081552 11 6 0.0 0.0 0.00 0.00 0.00 99 1013.9
20260506081049 11 6 0.0 0.0 0.00 0.00 0.00 99 1013.8
20260506080547 11 6 0.0 0.0 0.00 0.00 0.00 99 1013.7
20260506073027 11 6 0.0 0.0 0.00 0.00 0.00 99 1013.4
20260506072524 11 6 0.0 0.0 0.00 0.00 0.00 99 1013.3
20260506072022 11 6 0.0 0.0 0.00 0.00 0.00 99 1013.5
20260506071520 11 6 0.0 0.0 0.00 0.00 0.00 99 1013.4
20260506071017 11 6 0.0 0.0 0.00 0.00 0.00 99 1013.3
20260506070514 11 6 0.0 0.0 0.00 0.00 0.00 99 1013.3
20260506062451 11 6 0.0 0.0 0.00 0.00 0.00 99 1013.1
20260506061947 11 6 0.0 0.0 0.00 0.00 0.00 99 1013.2
20260506061444 11 6 0.0 0.0 0.00 0.00 0.00 99 1013.1
20260506060942 11 6 0.0 0.0 0.00 0.00 0.00 99 1013.1
20260506060440 11 6 0.0 0.0 0.00 0.00 0.00 99 1013.1
20260506051412 12 5 0.0 0.0 0.00 0.00 0.00 98 1013.0
20260506050909 12 5 0.0 0.0 0.00 0.00 0.00 98 1013.1
20260506050406 12 5 0.0 0.0 0.00 0.00 0.00 98 1012.9
20260506044857 12 5 0.0 0.0 0.00 0.00 0.00 97 1012.8
20260506044355 12 5 0.0 0.0 0.00 0.00 0.00 97 1012.8
20260506043851 12 5 0.0 0.0 0.00 0.00 0.00 97 1012.8
20260506043348 12 5 0.0 0.0 0.00 0.00 0.00 97 1012.7
20260506042847 12 4 0.0 0.0 0.00 0.00 0.00 97 1012.5
20260506042346 12 4 0.0 0.0 0.00 0.00 0.00 97 1012.6
20260506041844 12 4 0.0 0.0 0.00 0.00 0.00 97 1012.6
20260506041341 12 4 0.0 0.0 0.00 0.00 0.00 96 1012.5
20260506040837 12 4 0.0 0.0 0.00 0.00 0.00 96 1012.4
20260506040335 12 4 0.0 0.0 0.00 0.00 0.00 96 1012.4
20260506035831 12 4 0.0 0.0 0.00 0.00 0.00 96 1012.3
20260506035329 12 4 0.0 0.0 0.00 0.00 0.00 96 1012.3
20260506034826 12 4 0.0 0.0 0.00 0.00 0.00 96 1012.1
20260506034323 12 3 0.0 0.0 0.00 0.00 0.00 96 1012.1
20260506033820 12 345 0.0 0.0 0.00 0.00 0.00 96 1012.2
20260506033317 12 344 0.0 0.0 0.00 0.00 0.00 95 1012.2
20260506032814 12 343 0.0 0.0 0.00 0.00 0.00 95 1012.0
20260506032311 12 344 0.0 0.0 0.00 0.00 0.00 95 1012.0
20260506031807 12 346 0.0 0.0 0.00 0.00 0.00 94 1012.0
20260506031305 12 347 0.0 0.0 0.00 0.00 0.00 94 1012.0
20260506030802 12 347 0.0 0.0 0.00 0.00 0.00 94 1011.7
20260506030300 12 346 0.0 0.0 0.00 0.00 0.00 94 1012.1
20260506025757 12 348 0.0 0.0 0.00 0.00 0.00 94 1011.9
20260506025253 12 347 0.0 0.0 0.00 0.00 0.00 94 1011.8
20260506024750 12 348 0.0 1.6 0.00 0.00 0.00 94 1011.6
20260506024247 12 348 0.0 0.0 0.00 0.00 0.00 93 1011.9
20260506023743 12 340 1.6 1.6 0.00 0.00 0.00 93 1011.6
20260506023240 12 349 0.0 0.0 0.00 0.00 0.00 93 1011.5
20260506022736 12 348 0.0 0.0 0.00 0.00 0.00 93 1011.5
20260506022235 12 330 1.6 1.6 0.00 0.00 0.00 92 1011.5
20260506021733 12 343 0.0 0.0 0.00 0.00 0.00 92 1011.3
20260506021229 12 348 0.0 0.0 0.00 0.00 0.00 92 1011.4
20260506020726 12 348 0.0 0.0 0.00 0.00 0.00 92 1011.5
20260506020224 12 345 1.6 1.6 0.00 0.00 0.00 91 1011.4
20260506015721 12 347 0.0 0.0 0.00 0.00 0.00 90 1011.3
20260506015218 13 338 0.0 0.0 0.00 0.00 0.00 90 1011.5
20260506014710 13 346 1.6 1.6 0.00 0.00 0.00 90 1011.4
20260506014206 13 348 0.0 0.0 0.00 0.00 0.00 89 1011.4
20260506013704 13 335 1.6 1.6 0.00 0.00 0.00 89 1011.3
20260506013201 13 339 1.6 1.6 0.00 0.00 0.00 89 1011.3
20260506012657 13 332 0.0 0.0 0.00 0.00 0.00 89 1011.3
20260506012154 13 347 0.0 0.0 0.00 0.00 0.00 88 1011.1
20260506011651 13 335 0.0 1.6 0.00 0.00 0.00 89 1011.2
20260506011147 13 339 0.0 0.0 0.00 0.00 0.00 89 1011.4
20260506010646 13 347 0.0 1.6 0.00 0.00 0.00 88 1011.4
20260506010143 13 349 0.0 0.0 0.00 0.00 0.00 88 1011.2
20260506005640 13 348 0.0 0.0 0.00 0.00 0.00 89 1011.4
20260506005137 13 349 0.0 0.0 0.00 0.00 0.00 89 1011.3
20260506004632 13 341 1.6 1.6 0.00 0.00 0.00 88 1011.3
20260506004129 13 345 0.0 0.0 0.00 0.00 0.00 88 1011.3
20260506003620 13 345 1.6 1.6 0.00 0.00 0.00 87 1011.2
20260506003116 13 346 0.0 1.6 0.00 0.00 0.00 88 1011.3
20260506002613 13 329 1.6 1.6 0.00 0.00 0.00 87 1011.2
20260506002108 13 351 1.6 1.6 0.00 0.00 0.00 87 1011.3
20260506001604 13 343 0.0 1.6 0.00 0.00 0.00 86 1011.2
20260506001102 13 336 0.0 0.0 0.00 0.00 0.00 87 1011.4
20260506000559 13 338 0.0 0.0 0.00 0.00 0.00 86 1011.4
20260506000056 13 340 1.6 1.6 0.00 0.00 0.00 86 1011.3
20260505235555 13 347 0.0 0.0 0.00 0.00 0.00 86 1011.3
20260505235051 13 339 1.6 1.6 0.00 0.00 0.00 86 1011.1
20260505234548 13 346 3.2 3.2 0.00 0.00 0.00 86 1011.3
20260505234045 13 347 1.6 1.6 0.00 0.00 0.00 87 1011.3
20260505233543 13 345 1.6 1.6 0.00 0.00 0.00 86 1011.4
20260505233040 13 330 1.6 3.2 0.00 0.00 0.00 87 1011.3
20260505232538 13 344 1.6 1.6 0.00 0.00 0.00 87 1011.7
20260505232035 13 349 0.0 0.0 0.00 0.00 0.00 87 1011.7
20260505231532 13 339 1.6 1.6 0.00 0.00 0.00 87 1011.6
20260505231031 13 332 1.6 1.6 0.00 0.00 0.00 86 1011.6
20260505230527 13 329 1.6 1.6 0.00 0.00 0.00 85 1011.6
20260505230024 13 340 1.6 1.6 0.00 0.00 0.00 86 1011.3
20260505225521 13 0 0.0 0.0 0.00 0.00 0.00 86 1011.6
20260505225017 13 342 1.6 1.6 0.00 0.00 0.00 85 1011.8
20260505224514 13 319 1.6 1.6 0.00 0.00 0.00 85 1011.5
20260505224011 13 335 3.2 3.2 0.00 0.00 0.00 84 1011.7
20260505223508 13 320 3.2 3.2 0.00 0.00 0.00 84 1011.6
20260505223004 13 319 4.8 4.8 0.00 0.00 0.00 83 1011.4
20260505222500 13 346 3.2 3.2 0.00 0.00 0.00 83 1011.8
20260505221955 14 344 0.0 0.0 0.00 0.00 0.00 83 1012.0
20260505221453 14 349 3.2 3.2 0.00 0.00 0.00 84 1011.7
20260505220950 14 338 1.6 3.2 0.00 0.00 0.00 85 1011.8
20260505220447 14 345 0.0 0.0 0.00 0.00 0.00 85 1011.6
20260505215945 14 339 0.0 1.6 0.00 0.00 0.00 84 1011.7
20260505215443 14 344 1.6 3.2 0.00 0.00 0.00 84 1011.6
20260505214940 14 342 1.6 1.6 0.00 0.00 0.00 84 1011.7
20260505214438 14 349 1.6 3.2 0.00 0.00 0.00 85 1011.6
20260505213935 14 341 0.0 1.6 0.00 0.00 0.00 84 1011.3
20260505213433 15 336 1.6 1.6 0.00 0.00 0.00 84 1011.4
20260505212929 15 316 3.2 3.2 0.00 0.00 0.00 82 1011.3
20260505212426 15 320 3.2 3.2 0.00 0.00 0.00 82 1011.2
20260505211922 15 330 1.6 3.2 0.00 0.00 0.00 82 1011.1
20260505211420 15 342 1.6 1.6 0.00 0.00 0.00 83 1011.1
20260505210916 15 311 3.2 3.2 0.00 0.00 0.00 82 1011.3
20260505210413 15 329 3.2 3.2 0.00 0.00 0.00 82 1011.3
20260505205910 14 358 3.2 4.8 0.00 0.00 0.00 83 1011.0
20260505205408 14 332 4.8 4.8 0.00 0.00 0.00 83 1011.3
20260505204905 14 347 3.2 3.2 0.00 0.00 0.00 84 1011.2
20260505204403 14 337 3.2 3.2 0.00 0.00 0.00 83 1011.3
20260505203900 14 352 0.0 1.6 0.00 0.00 0.00 84 1011.2
20260505203356 14 339 1.6 3.2 0.00 0.00 0.00 83 1011.2
20260505202852 14 326 3.2 3.2 0.00 0.00 0.00 83 1011.1
20260505202349 14 327 1.6 3.2 0.00 0.00 0.00 85 1011.1
20260505201845 14 342 4.8 4.8 0.00 0.00 0.00 83 1011.3
20260505201343 15 357 0.0 0.0 0.00 0.00 0.00 85 1011.2
20260505200841 14 346 0.0 0.0 0.00 0.00 0.00 85 1011.2
20260505200338 14 0 0.0 0.0 0.00 0.00 0.00 84 1011.2
20260505195833 14 343 0.0 0.0 0.00 0.00 0.00 87 1011.3
20260505195330 14 337 1.6 1.6 0.00 0.00 0.00 86 1011.2
20260505194827 13 347 0.0 1.6 0.00 0.00 0.00 86 1011.3
20260505194325 13 350 1.6 1.6 0.00 0.00 0.00 87 1011.1
20260505193820 13 355 0.0 0.0 0.00 0.00 0.00 87 1011.3
20260505193318 13 352 1.6 1.6 0.00 0.00 0.00 87 1011.2
20260505192816 13 354 0.0 0.0 0.00 0.00 0.00 86 1011.4
20260505192314 13 353 0.0 0.0 0.00 0.00 0.00 86 1011.3
20260505191811 13 355 0.0 0.0 0.00 0.00 0.00 87 1011.3
20260505191309 13 355 1.6 1.6 0.00 0.00 0.00 86 1011.5
20260505190806 13 355 0.0 0.0 0.00 0.00 0.00 87 1011.3
20260505190301 13 355 0.0 0.0 0.00 0.00 0.00 88 1011.5
20260505185757 13 353 1.6 1.6 0.00 0.00 0.00 88 1011.5
20260505185254 13 355 1.6 1.6 0.00 0.00 0.00 88 1011.5
20260505184750 13 356 0.0 0.0 0.00 0.00 0.00 87 1011.4
20260505184247 13 356 0.0 0.0 0.00 0.00 0.00 90 1011.5
20260505183744 13 355 0.0 0.0 0.00 0.00 0.00 89 1011.2
20260505183241 13 354 0.0 0.0 0.00 0.00 0.00 90 1011.5
20260505182738 13 351 0.0 0.0 0.00 0.00 0.00 91 1011.4
20260505182235 12 352 0.0 0.0 0.00 0.00 0.00 91 1011.4
20260505181731 12 354 0.0 0.0 0.00 0.00 0.00 91 1011.5
20260505181229 12 354 0.0 0.0 0.00 0.00 0.00 91 1011.4
20260505180725 12 354 0.0 0.0 0.00 0.00 0.00 92 1011.2
20260505180222 13 353 1.6 1.6 0.00 0.00 0.00 92 1011.4
20260505175718 13 356 0.0 0.0 0.00 0.00 0.00 92 1011.4
20260505175214 13 356 0.0 0.0 0.00 0.00 0.00 92 1011.3
20260505174711 12 356 0.0 0.0 0.00 0.00 0.00 93 1011.5
20260505174208 12 354 1.6 1.6 0.00 0.00 0.00 92 1011.2
20260505173704 12 354 1.6 1.6 0.00 0.00 0.00 92 1011.0
20260505173201 12 354 1.6 1.6 0.00 0.00 0.00 92 1011.0
20260505172658 12 353 1.6 1.6 0.00 0.00 0.00 92 1011.0
20260505172155 12 356 0.0 1.6 0.00 0.00 0.00 92 1010.9
20260505171655 12 354 0.0 1.6 0.00 0.00 0.00 91 1011.1
20260505171153 12 348 3.2 3.2 0.00 0.00 0.00 91 1011.1
20260505170650 13 355 1.6 1.6 0.00 0.00 0.00 91 1011.2
20260505170147 13 356 0.0 0.0 0.00 0.00 0.00 91 1011.1
20260505165646 13 355 1.6 3.2 0.00 0.00 0.00 91 1011.0
20260505165142 13 358 0.0 0.0 0.00 0.00 0.00 91 1011.1
20260505164638 13 358 0.0 0.0 0.00 0.00 0.00 92 1010.9
20260505164136 13 358 0.0 0.0 0.00 0.00 0.00 92 1011.0
20260505163634 12 354 0.0 0.0 0.00 0.00 0.00 92 1010.8
20260505163131 13 11 0.0 0.0 0.00 0.00 0.00 93 1010.9
20260505162628 12 11 0.0 0.0 0.00 0.00 0.00 93 1010.9
20260505162126 12 11 0.0 0.0 0.00 0.00 0.00 93 1010.9
20260505161623 12 11 0.0 0.0 0.00 0.00 0.00 94 1010.9
20260505161120 12 11 0.0 0.0 0.00 0.00 0.00 93 1010.9
20260505160618 12 11 0.0 0.0 0.00 0.00 0.00 94 1011.0
20260505160115 12 11 0.0 0.0 0.00 0.00 0.00 97 1010.8
20260505153055 11 15 0.0 0.0 0.00 0.00 0.00 99 1010.7
20260505152551 11 15 0.0 0.0 0.00 0.00 0.00 99 1010.8
20260505152047 11 15 0.0 0.0 0.00 0.00 0.00 99 1010.9
20260505151542 11 15 0.0 0.0 0.00 0.00 0.00 99 1010.6
20260505151040 11 15 0.0 0.0 0.00 0.00 0.00 99 1010.8
20260505150536 11 15 0.0 0.0 0.00 0.00 0.00 99 1010.8
20260505140501 10 15 0.0 0.0 0.00 0.00 0.00 99 1010.4
20260505124915 10 15 0.0 0.0 0.00 0.00 0.00 99 1009.8
20260505124412 10 15 0.0 0.0 0.00 0.00 0.00 99 1009.9
20260505123908 10 15 0.0 0.0 0.00 0.00 0.00 99 1009.8
20260505123404 10 15 0.0 0.0 0.00 0.00 0.00 99 1009.8
20260505122900 10 15 0.0 0.0 0.00 0.00 0.00 99 1009.6
20260505122358 10 15 0.0 0.0 0.00 0.00 0.00 99 1009.8
20260505121854 10 15 0.0 0.0 0.00 0.00 0.00 99 1009.7
20260505121351 10 15 0.0 0.0 0.00 0.00 0.00 99 1009.8
20260505120847 10 15 0.0 0.0 0.00 0.00 0.00 99 1009.9
20260505120343 10 15 0.0 0.0 0.00 0.00 0.00 99 1009.5
20260505115842 10 15 0.0 0.0 0.00 0.00 0.00 99 1009.6
20260505115340 10 15 0.0 0.0 0.00 0.00 0.00 99 1009.8
20260505114838 10 15 0.0 0.0 0.00 0.00 0.00 99 1009.8
20260505114334 10 15 0.0 0.0 0.00 0.00 0.00 99 1009.7
20260505113830 10 15 0.0 0.0 0.00 0.00 0.00 99 1009.8
20260505113327 10 15 0.0 0.0 0.00 0.00 0.00 99 1009.6
20260505112823 10 15 0.0 0.0 0.00 0.00 0.00 99 1009.6
20260505112320 10 15 0.0 0.0 0.00 0.00 0.00 99 1009.8
20260505111816 10 15 0.0 0.0 0.00 0.00 0.00 99 1009.7
20260505111311 10 15 0.0 0.0 0.00 0.00 0.00 99 1009.8
20260505110807 10 15 0.0 0.0 0.00 0.00 0.00 99 1009.8
20260505110305 10 15 0.0 0.0 0.00 0.00 0.00 99 1009.7
20260505101739 10 14 0.0 0.0 0.00 0.00 0.00 99 1009.8
20260505101235 10 14 0.0 0.0 0.00 0.00 0.00 99 1010.0
20260505100732 10 14 0.0 0.0 0.00 0.00 0.00 99 1009.8
20260505100229 10 14 0.0 0.0 0.00 0.00 0.00 99 1009.9
20260505095724 10 14 0.0 0.0 0.00 0.00 0.00 99 1009.8
20260505095222 10 14 0.0 0.0 0.00 0.00 0.00 99 1009.9
20260505094718 10 14 0.0 0.0 0.00 0.00 0.00 99 1009.8
20260505094214 10 14 0.0 0.0 0.00 0.00 0.00 99 1009.8
20260505093711 10 14 0.0 0.0 0.00 0.00 0.00 99 1009.9
20260505093209 10 14 0.0 0.0 0.00 0.00 0.00 99 1009.9